This is the latest recevied weather packets stored in our database for station/object KC2G. If no packets are shown the sender has not sent any weather packets the latest 10 day(s).
| Time | Temp. | Humidity | Pressure | Rain* | Wind** | Luminosity | Snow |
|---|---|---|---|---|---|---|---|
| 1777292155 | 8.33° C | 91% | 1023.5 hPa | 0 mm | 0 m/s | - | - |
| 1777291256 | 7.78° C | 98% | 1023.4 hPa | 0 mm | 0 m/s | - | - |
| 1777290354 | 6.11° C | 99% | 1023.5 hPa | 0 mm | 0 m/s | - | - |
| 1777289455 | 5° C | 99% | 1023.4 hPa | 0 mm | 0 m/s | - | - |
| 1777288555 | 3.89° C | 99% | 1023.3 hPa | 0 mm | 0 m/s | - | - |
| 1777288275 | 3.33° C | 99% | 1023.2 hPa | 0 mm | 0 m/s | - | - |
| 1777287655 | 3.33° C | 99% | 1023.3 hPa | 0 mm | 0 m/s | - | - |
| 1777286755 | 3.33° C | 99% | 1023.2 hPa | 0 mm | 0 m/s | - | - |
| 1777286360 | 2.78° C | 99% | 1023.2 hPa | 0 mm | 0 m/s | - | - |
| 1777285888 | 2.78° C | 99% | 1023.3 hPa | 0 mm | 0.45 m/s, 263° | - | - |
| 1777285855 | 2.78° C | 99% | 1023.3 hPa | 0 mm | 0.45 m/s, 263° | - | - |
| 1777284955 | 2.78° C | 99% | 1023.2 hPa | 0 mm | 0 m/s | - | - |
| 1777284055 | 2.78° C | 99% | 1023.2 hPa | 0 mm | 0 m/s | - | - |
| 1777283186 | 2.78° C | 99% | 1023.1 hPa | 0 mm | 0 m/s | - | - |
| 1777283155 | 2.78° C | 99% | 1023.1 hPa | 0 mm | 0 m/s | - | - |
| 1777282256 | 3.33° C | 99% | 1023.1 hPa | 0 mm | 0 m/s | - | - |
| 1777281354 | 3.33° C | 99% | 1023.2 hPa | 0 mm | 0 m/s | - | - |
| 1777280600 | 3.33° C | 99% | 1023.2 hPa | 0 mm | 0 m/s | - | - |
| 1777280455 | 3.33° C | 99% | 1023.2 hPa | 0 mm | 0 m/s | - | - |
| 1777279601 | 3.33° C | 99% | 1023.2 hPa | 0 mm | 0 m/s | - | - |
| 1777279554 | 3.33° C | 99% | 1023.2 hPa | 0 mm | 0 m/s | - | - |
| 1777278655 | 3.33° C | 99% | 1023.2 hPa | 0 mm | 0 m/s | - | - |
| 1777277754 | 3.33° C | 99% | 1023.2 hPa | 0 mm | 0 m/s | - | - |
| 1777276855 | 3.33° C | 99% | 1023.2 hPa | 0 mm | 0 m/s | - | - |
| 1777276748 | 3.89° C | 99% | 1022.8 hPa | 0 mm | 0 m/s | - | - |
* Rain latest hour (hover to see other rain measurements)
** Current wind speed in m/s (hover to see current wind gust speed)